www.pogodaiklimat.ru

Погода и климат >> Архив погоды >> Индия >> Thondi


ПОГОДА в Thondi

  • Прогноз погоды в Thondi
  • Монитор погоды в Thondi
  • Климат города

АРХИВ ПОГОДЫ в Thondi

Время (UTC), дата Ветер
(напр.,м/с)
 
Видим.   Явления Облачность Т
(С)
Тd
(С)
f
(%)
Тe
(С)
Тes
(С)
Комфортность P
(гПа)
Po
(гПа)
Тmin
(С)
Tmax
(С)
R
(мм)
R24
(мм)
S
(см)
18 10.12 штиль 0 4000 м 6/3 600 м
[Sc Ac trans Ci fib]
+24.2 +21.5 85 +31 +31 очень
душно
1012.6 1012.0
21 10.12 штиль 0 4000 м 5/3 600 м
[Sc Ac trans Ci fib]
+23.4 +20.6 84 +31 +31 очень
душно
1011.0 1010.4
00 11.12 штиль 0 4000 м 5/3 600 м
[Sc Ac trans Ci fib]
+22.0 +19.5 86 +28 +28 душно 1011.3 1010.7
03 11.12 штиль 0 10 км 4/1 600 м
[Sc Ci fib]
+25.2 +21.9 82 +32 +37 очень
душно
1014.0 1013.4 +21.8 +32.6
06 11.12 В 3 10 км 5/4 600 м
[Sc Ci fib]
+29.6 +21.9 63 +38 +45 очень
душно
1013.6 1013.0
09 11.12 В 4 10 км 4/3 600 м
[Sc Ci fib]
+30.6 +23.4 65 +41 +46 опасность
перегрева
1010.3 1009.7
12 11.12 В 3 10 км 5/3 600 м
[Sc diur, vesp Ci fib]
+29.0 +23.5 72 +39 +39 очень
душно
1010.6 1010.0 +31.2
15 11.12 В 4 4000 м 5/3 600 м
[Sc Ci sp]
+27.6 +23.8 80 +38 +38 очень
душно
1012.4 1011.8
18 11.12 штиль 0 4000 м 4/1 600 м
[Sc Ci fib]
+25.0 +21.7 82 +32 +32 очень
душно
1012.6 1012.0
21 11.12 штиль 0 4000 м 1/0
[Ci fib]
+23.4 +20.0 81 +30 +30 очень
душно
1011.7 1011.1
00 12.12 штиль 0 4000 м 1/0
[Ci fib]
+22.2 +18.7 81 +28 +28 душно 1012.1 1011.5
03 12.12 штиль 0 10 км 3/3 600 м
[Sc]
+25.2 +22.8 87 +33 +38 очень
душно
1014.2 1013.6 +22.0 +31.2
06 12.12 С 2 10 км 5/3 600 м
[Sc Ci fib]
+30.6 +22.7 63 +40 +50 очень
душно
1013.6 1013.0
09 12.12 В 3 10 км 3/3 600 м
[Sc]
+31.6 +24.2 65 +44 +50 опасность
перегрева
1011.3 1010.7
12 12.12 СВ 3 10 км 3/3 600 м
[Sc]
+29.2 +24.0 74 +41 +41 опасность
перегрева
1011.1 1010.5 +31.6
15 12.12 СВ 3 4000 м 3/3 600 м
[Sc]
+27.6 +24.4 83 +39 +39 очень
душно
1012.8 1012.3
18 12.12 СВ 3 4000 м 3/3 600 м
[Sc]
+27.6 +24.4 83 +39 +39 очень
душно
1012.9 1012.4
21 12.12 штиль 0 4000 м 1/1 600 м
[Sc]
+23.6 +21.5 88 +30 +30 очень
душно
1012.6 1012.0
00 13.12 штиль 0 4000 м 3/1 600 м
[Sc Ci fib]
+23.2 +21.7 91 +31 +31 очень
душно
1013.4 1012.8
03 13.12 штиль 0 4000 м мгла 4/3 600 м
[Sc Ci sp]
+25.2 +23.1 88 +34 +37 очень
душно
1015.2 1014.6 +22.8 +31.6
06 13.12 СВ 3 4000 м мгла 4/3 600 м
[Sc Ci sp]
+30.2 +22.6 64 +40 +49 очень
душно
1014.1 1013.5
09 13.12 СВ 3 4000 м мгла 5/3 600 м
[Sc Ci sp]
+31.0 +24.7 69 +44 +50 опасность
перегрева
1011.4 1010.8
12 13.12 В 2 10 км 6/3 600 м
[Sc Ci sp]
+29.2 +24.9 78 +42 +42 опасность
перегрева
1011.7 1011.1 +31.2
15 13.12 СВ 2 4000 м 5/3 600 м
[Sc Ci sp]
+27.2 +21.8 72 +35 +35 очень
душно
1013.5 1012.9
18 13.12 СВ 2 4000 м 5/3 600 м
[Sc Ci sp]
+24.8 +22.4 87 +32 +32 очень
душно
1013.4 1012.8
21 13.12 СВ 2 4000 м 5/3 600 м
[Sc Ci sp]
+23.6 +21.5 88 +30 +30 очень
душно
1012.6 1012.0
00 14.12 СВ 2 4000 м мгла 4/1 600 м
[Sc Ac trans Ci fib]
+22.8 +21.6 93 +30 +30 очень
душно
1012.3 1011.7
03 14.12 СВ 2 4000 м мгла 4/1 600 м
[Sc Ci sp]
+25.8 +22.5 82 +34 +37 очень
душно
1014.7 1014.1 +22.6 +31.2
06 14.12 С 4 4000 м 5/3 600 м
[Sc Ci sp]
+29.8 +21.1 60 +37 +44 очень
душно
1013.9 1013.3
09 14.12 С 3 10 км 6/3 600 м
[Cu med, cong Ci sp]
+30.8 +24.5 69 +43 +49 опасность
перегрева
1010.7 1010.1
12 14.12 СВ 3 10 км 8/3 600 м
[Sc Ci sp]
+28.2 +22.6 72 +37 +37 очень
душно
1010.6 1010.0 +31.2
15 14.12 СВ 3 4000 м 5/3 600 м
[Sc Ci sp]
+27.2 +21.5 71 +35 +35 очень
душно
1013.1 1012.5
21 14.12 штиль 0 4000 м 5/3 600 м
[Sc Ci sp]
+23.6 +21.5 88 +30 +30 очень
душно
1011.7 1011.1
00 15.12 штиль 0 4000 м мгла 5/3 600 м
[Sc Ci sp]
+22.8 +21.6 93 +30 +30 очень
душно
1011.5 1010.9
03 15.12 СВ 4 4000 м мгла 9/3 600 м
[Sc Ac As Cs]
+25.4 +22.1 82 +33 +34 очень
душно
1013.4 1012.8 +23.5 +31.2
06 15.12 С 4 4000 м мгла 9/3 600 м
[Sc Ac trans Cs]
+30.4 +21.7 60 +39 +43 очень
душно
1012.2 1011.6
09 15.12 С 6 4000 м мгла 9/3 600 м
[Sc Ac trans Cs]
+31.0 +21.9 58 +39 +41 очень
душно
1009.6 1009.0
12 15.12 С 5 4000 м мгла 10/3 600 м
[Sc Ac As Cs]
+29.0 +20.6 61 +36 +36 очень
душно
1010.5 1009.9 +31.0
15 15.12 С 2 4000 м мгла 9/3 600 м
[Sc Ac As Cs]
+26.4 +22.9 81 +35 +35 очень
душно
1012.2 1011.6
18 15.12 С 3 4000 м 9/3 600 м
[Sc Ac As Cs]
+25.6 +22.0 81 +33 +33 очень
душно
1012.6 1012.0
21 15.12 С 5 4000 м 9/3 600 м
[Sc Ac As Cs]
+23.6 +20.5 83 +29 +29 душно 1011.0 1010.4
00 16.12 С 4 4000 м 8/3 600 м
[Sc diur, vesp Ac trans Ci sp]
+23.2 +19.8 81 +30 +30 очень
душно
1011.0 1010.4
03 16.12 штиль 0 10 км 8/3 600 м
[Sc Ac trans Ci sp]
+25.8 +19.6 69 +31 +34 очень
душно
1013.2 1012.6 +22.8 +31.0
06 16.12 С 4 10 км 9/4 600 м
[Sc Ac As Cs]
+31.6 +16.4 40 +35 +38 очень
душно
1012.6 1012.0
09 16.12 С 3 10 км 9/4 600 м
[Sc Ac trans Ci sp]
+31.2 +16.6 42 +35 +38 очень
душно
1010.4 1009.8
12 16.12 штиль 0 10 км 9/4 600 м
[Sc Ac As Cs]
+29.6 +19.9 56 +36 +36 очень
душно
1009.8 1009.2 +32.0
15 16.12 С 4 4000 м 10/3 600 м
[Sc Ac As Cs]
+26.0 +20.2 70 +32 +32 очень
душно
1011.7 1011.1
18 16.12 штиль 0 4000 м 9/4 600 м
[Sc Ac As Cs]
+24.6 +20.0 76 +30 +30 очень
душно
1012.2 1011.6
21 16.12 штиль 0 4000 м 8/4 600 м
[Sc Ac As Cs]
+22.6 +19.2 81 +29 +29 очень
душно
1011.5 1010.9
00 17.12 штиль 0 4000 м 9/4 600 м
[Sc Ac As Cs]
+21.0 +17.8 82 +25 +25 комфорт 1011.6 1011.0
03 17.12 штиль 0 10 км 9/4 600 м
[Sc Ac As Cs]
+24.6 +20.0 76 +30 +32 очень
душно
1013.4 1012.8 +20.8 +32.0
06 17.12 штиль 0 10 км 5/3 600 м
[Sc Ac trans Ci fib]
+32.2 +21.2 52 +40 +52 опасность
солнечного
удара
1012.6 1012.0
09 17.12 штиль 0 10 км 3/3 600 м
[Sc]
+31.6 +21.9 56 +40 +50 очень
душно
1010.1 1009.5
12 17.12 С 4 10 км 3/3 600 м
[Sc]
+28.6 +23.1 72 +38 +38 очень
душно
1010.1 1009.5 +32.4
15 17.12 ЮЗ 4 4000 м 8/3 600 м
[Sc Ac trans Ci sp]
+27.4 +23.6 80 +37 +37 очень
душно
1012.1 1011.5

 

Местоположение метеостанции Thondi (Tamil Nadu, Индия): широта 9.73 долгота 79.03 высота над уровнем моря 5 м.

В архиве по умолчанию представлена погода в Thondi за последнюю неделю. Архивные данные за месяц целиком и за предыдущие месяцы, начиная с января 2011 года, Вы можете получить, выбрав интересующий диапазон дат из раскрывающегося списка и нажав кнопку "Ввод!".


*Определитесь, кто Вы:
робот инопланетянин человек

Внимание! Время в таблицах - всемирное. Для получения местного времени необходимо прибавить поправку, которая в Thondi равна 5.5 ч.

Смотрите также архив погоды в соседних городах и на ближайших метеорологических станциях:

Погода в Pamban (Tamil Nadu, Индия) (54 км)
Погода в Adiramapattinam (Tamil Nadu, Индия) (77 км)
Погода в Kudimiamalai (Tamil Nadu, Индия) (84 км)
Погода в Madurai (Tamil Nadu, Индия) (102 км)
Погода в Madurai Airport (Tamil Nadu, Индия) (105 км)
Погода в Kovilangulam (Tamil Nadu, Индия) (106 км)
Погода в Jaffna (Шри Ланка) (109 км)
Погода в Thanjavur (Tamil Nadu, Индия) (117 км)
Погода в Tiruchirapalli (Tamil Nadu, Индия) (121 км)
Погода в Mannar (Шри Ланка) (128 км)

Пояснения к столбцам:

Ветер - указаны скорость ветра в м/с - средняя за 10 мин, порывы в срок и между сроками (в фигурных скобках) и направление, откуда дует ветер: С - северный, СВ - северо-восточный, В - восточный, ЮВ - юго-восточный, Ю - южный, ЮЗ - юго-западный, З - западный, СЗ - северо-западный.
Видимость - горизонтальная дальность видимости в метрах или километрах. При видимости от 1 до 10 км при отсутствии осадков обычно наблюдается дымка, при ухудшении видимости до 1 км и менее - туман. В сухую погоду видимость может ухудшаться дымом, пылью или мглою.
Явления - указаны атмосферные явления, наблюдавшиеся в срок или в последний час перед сроком; фигурными скобками обозначены явления, наблюдавшиеся между сроками (за 1-3 часа до срока); квадратными скобками обозначены град или гололедные отложения с указанием их диаметра в мм.
Облачность - указаны через наклонную черту общая и нижняя облачность в баллах и высота нижней границы облаков в метрах; квадратными скобками обозначены формы облаков: Ci - перистые, Cs - перисто-слоистые, Cc - перисто-кучевые, Ac - высококучевые, As - высокослоистые, Sc - слоисто-кучевые, Ns - слоисто-дождевые, Cu - кучевые, Cb - кучево-дождевые. Подробнее классификацию облаков см. в Атласе облаков (PDF).
T - Температура воздуха - температура, измеренная на высоте 2 м над землей.
Td - Температура точки росы - температура, при понижении до которой содержащийся в воздухе водяной пар достигнет насыщения.
f - Относительная влажность воздуха - влажноcть воздуха, измеренная на высоте 2 м над землей.
Te - Эффективная температура - температура, которую ощущает одетый по сезону человек в тени. Характеристика душности погоды. При расчете учитывается влияние влажности воздуха и скорости ветра на теплоощущения человека.
Tes - Эффективная температура на солнце - температура, которую ощущает человек, с поправкой на солнечный нагрев. Характеристика знойности погоды. Зависит от высоты солнца над горизонтом, облачности и скорости ветра. Ночью, в пасмурную погоду, а также при ветре 12 м/с и более поправка равна нулю.
P - Атмосферное давление - приведенное к уровню моря атмосферное давление.
Po - Атмосферное давление - измеренное на уровне метеостанции атмосферное давление.
Tmin - Минимальная температура - минимум температуры воздуха на высоте 2 м над землей.
Tmax - Максимальная температура - максимум температуры воздуха на высоте 2 м над землей.
R - Количество осадков - Количество выпавших осадков за период времени, мм. При наведении курсора мыши на число - период времени, за который выпало указанное количество осадков.
R24 - Количество осадков - Количество выпавших осадков за 24 часа, мм.
S - Снежный покров - Высота снежного покрова, см. При наведении курсора мыши на число - состояние снежного покрова и степень покрытия местности в баллах.